Location: Unspecified
(0.0000°N, 0.0000°E)
Time: 12:56:03
(UTC+00:00)

Envisat - Pass Details

Date: 13 January 2018
Orbit: 764 x 766 km, 98.2° (Epoch: 22 July)

Event Time Altitude Azimuth Distance (km) Brightness Sun altitude
Rises 21:06:38 0° 202° (SSW) 3,227 6.8 -40.7°
Reaches altitude 10° 21:10:03 10° 227° (SW) 2,299 6.1 -41.4°
Maximum altitude 21:12:36 14° 257° (WSW) 2,029 5.7 -42.0°
Enters shadow 21:12:50 14° 260° (W) 2,031 5.7 -42.1°
